Regional Weather Roundup
Issued by NWS Spokane, WA

Home | Current Version | Previous Version | Text Only | Print | Product List | Glossary On
Versions: 1 2 3 4 5 6 7 8 9 10 11 12 13 14 15 16 17 18 19 20 21 22 23 24 25 26 27 28 29 30 31 32 33 34 35 36 37 38 39 40 41 42 43 44 45 46 47 48 49 50
000
NZUS01 KOTX 020605
RWROTX
EASTERN WASHINGTON/NORTHERN IDAHO ROUNDUP
NATIONAL WEATHER SERVICE, SPOKANE WA
1100 PM PDT WED OCT 01 2014

Note: "fair" indicated few or no clouds below 12,000 feet with no
significant weather and/or obstructions to visibility.

...NORTHEAST WASHINGTON AND NORTHERN IDAHO PANHANDLE...

CITY           SKY/WX    TMP DP  RH WIND       PRES   REMARKS
SPOKANE INTL   CLOUDY    54  38  54 SW15      30.01F
SPOKANE DOWNTO CLOUDY    56  38  50 CALM      30.02F
COEUR D ALENE  CLOUDY    54  37  54 S13       30.01F
DEER PARK      MOCLDY    53  38  56 S10       30.01F
SANDPOINT      MOCLDY    48  37  66 S3        30.00S

...SOUTHEAST WASHINGTON AND SOUTHERN IDAHO PANHANDLE...

CITY           SKY/WX    TMP DP  RH WIND       PRES   REMARKS
WALLA WALLA    CLEAR     56  38  50 S9        30.11R
PULLMAN/MOSCOW PTCLDY    43  35  73 CALM      30.10R
LEWISTON       CLEAR     50  38  63 S3        30.08R
LOWELL           N/A     48  45  89 CALM      30.15R

...COLUMBIA BASIN...

CITY           SKY/WX    TMP DP  RH WIND       PRES   REMARKS
EPHRATA        CLOUDY    60  34  37 W10       30.03S
MOSES LAKE     CLOUDY    62  32  32 VRB3      30.05R
TRI CITIES     MOCLDY    60  44  55 SW7       30.09R
HERMISTON      PTCLDY    57  39  51 SW13      30.09R
PENDLETON      CLEAR     51  35  54 S7        30.11R

...EAST SLOPES CASCADES...

CITY           SKY/WX    TMP DP  RH WIND       PRES   REMARKS
THE DALLES     CLEAR     59  41  51 SW7       30.13S
YAKIMA         CLOUDY    59  39  47 CALM      30.09S
ELLENSBURG     MOCLDY    56  41  57 NW20      30.09S
WENATCHEE      MOCLDY    60  34  37 NW15      30.05F
OMAK           PTCLDY    58  29  33 N7G18     30.03R

...SOUTHERN BRITISH COLUMBIA...

CITY           SKY/WX    TMP DP  RH WIND       PRES   REMARKS

...WESTERN MONTANA...

CITY           SKY/WX    TMP DP  RH WIND       PRES   REMARKS
MISSOULA       CLOUDY    46  38  73 CALM      30.08F

...NEIGHBORING CITIES...

CITY           SKY/WX    TMP DP  RH WIND       PRES   REMARKS
SEATTLE        CLOUDY    58  45  62 E9        30.21R



USA.gov is the U.S. government's official web portal to all federal, state and local government web resources and services.